Location: Newark
(25.4297°S, 49.2719°W)
Time: 00:08:53
(UTC+00:00)

Vanguard 1 Rocket - Pass Details

Date: 23 November 2019
Orbit: 650 x 4226 km, 34.3° (Epoch: 07 December)

Event Time Altitude Azimuth Distance (km) Brightness Sun altitude
Rises 21:19:31 0° 249° (WSW) 8,276 15.4 5.2°
Reaches altitude 10° 21:25:06 10° 248° (WSW) 7,391 14.9 4.0°
Maximum altitude 21:52:01 85° 157° (SSE) 3,674 10.5 -1.6°
Drops below altitude 10° 22:09:13 10° 67° (ENE) 5,120 10.5 -5.1°
Enters shadow 22:10:29 - 67° (ENE) 5,381 10.6 -5.4°
Sets 22:12:16 0° 67° (ENE) 5,762 - -5.7°
